GW2484 Weather Reports


Display with metric or nautical units.
time (UTC)temp
F
wind
direction
speed
MPH
gust
MPH
rain 1hr
in
rain 24hr
in
rain mn
in
humidity
%
barometer
mb
20260502190229 68 317 3.0 10.0 0.00 0.00 0.00 43 1022.1
20260502185639 68 322 3.0 7.0 0.00 0.00 0.00 44 1022.0
20260502184936 68 299 2.0 6.0 0.00 0.00 0.00 45 1022.2
20260502184234 68 42 1.0 9.0 0.00 0.00 0.00 51 1022.2
20260502183531 68 304 2.0 9.0 0.00 0.00 0.00 44 1022.2
20260502182836 68 320 4.0 8.0 0.00 0.00 0.00 45 1022.2
20260502182026 68 331 1.0 9.0 0.00 0.00 0.00 49 1022.2
20260502181552 67 317 4.0 9.0 0.00 0.00 0.00 44 1022.3
20260502180847 67 331 1.0 10.0 0.00 0.00 0.00 47 1022.3
20260502180255 67 319 5.0 10.0 0.00 0.00 0.00 44 1022.2
20260502170106 66 33 3.0 8.0 0.00 0.00 0.00 50 1022.0
20260502163918 65 20 3.0 8.0 0.00 0.00 0.00 46 1022.1
20260502163329 64 8 2.0 10.0 0.00 0.00 0.00 49 1022.1
20260502162628 64 337 4.0 10.0 0.00 0.00 0.00 50 1022.1
20260502162040 64 304 5.0 10.0 0.00 0.00 0.00 48 1022.2
20260502161118 64 325 4.0 11.0 0.00 0.00 0.00 48 1022.2
20260502160527 63 43 4.0 11.0 0.00 0.00 0.00 50 1022.3
20260502151949 62 49 1.0 8.0 0.00 0.00 0.00 57 1022.2
20260502151358 62 330 1.0 8.0 0.00 0.00 0.00 57 1022.2
20260502150704 61 319 3.0 7.0 0.00 0.00 0.00 58 1022.1
20260502150113 61 326 3.0 9.0 0.00 0.00 0.00 58 1022.1
20260502130418 51 233 0.0 0.0 0.00 0.00 0.00 79 1021.0
20260502123717 51 233 0.0 0.0 0.00 0.00 0.00 78 1020.8
20260502123033 51 233 0.0 0.0 0.00 0.00 0.00 78 1020.7
20260502122308 51 233 0.0 0.0 0.00 0.00 0.00 78 1020.6
20260502121714 51 233 0.0 0.0 0.00 0.00 0.00 77 1020.4
20260502121125 51 233 0.0 1.0 0.00 0.00 0.00 77 1020.4
20260502120639 51 233 0.0 3.0 0.00 0.00 0.00 77 1020.3
20260502115830 51 233 1.0 3.0 0.00 0.00 0.00 77 1020.2
20260502115128 51 344 0.0 1.0 0.00 0.00 0.00 76 1020.1
20260502114551 51 171 0.0 0.0 0.00 0.00 0.00 76 1020.2
20260502113729 51 171 0.0 2.0 0.00 0.00 0.00 76 1020.2
20260502113010 52 171 0.0 2.0 0.00 0.00 0.00 76 1020.1
20260502112506 52 171 0.0 1.0 0.00 0.00 0.00 75 1020.1
20260502112006 52 297 0.0 1.0 0.00 0.00 0.00 74 1020.1
20260502111508 52 304 0.0 2.0 0.00 0.00 0.00 73 1020.2
20260502111008 52 304 0.0 2.0 0.00 0.00 0.00 72 1020.1
20260502110508 53 304 0.0 2.0 0.00 0.00 0.00 71 1020.1
20260502110033 53 304 0.0 2.0 0.00 0.00 0.00 71 1020.0
20260502105507 53 304 1.0 2.0 0.00 0.00 0.00 71 1020.1
20260502105006 53 304 0.0 2.0 0.00 0.00 0.00 71 1020.1
20260502104525 53 306 0.0 2.0 0.00 0.00 0.00 70 1019.9
20260502104006 53 306 0.0 2.0 0.00 0.00 0.00 70 1019.9
20260502103503 53 306 1.0 2.0 0.00 0.00 0.00 70 1020.0
20260502103026 53 324 0.0 2.0 0.00 0.00 0.00 70 1020.1
20260502102508 54 324 0.0 2.0 0.00 0.00 0.00 69 1020.1
20260502102010 54 320 0.0 3.0 0.00 0.00 0.00 69 1020.1
20260502101524 54 320 0.0 3.0 0.00 0.00 0.00 68 1020.1
20260502101003 54 321 0.0 3.0 0.00 0.00 0.00 68 1020.2
20260502100510 54 317 1.0 3.0 0.00 0.00 0.00 68 1020.1
20260502091512 53 316 1.0 4.0 0.00 0.00 0.00 66 1020.1
20260502091007 53 314 1.0 3.0 0.00 0.00 0.00 67 1020.0
20260502090511 53 339 0.0 3.0 0.00 0.00 0.00 67 1019.9
20260502071528 49 53 0.0 0.0 0.00 0.00 0.00 80 1019.0
20260502071013 49 53 0.0 0.0 0.00 0.00 0.00 80 1019.1
20260502070510 49 53 0.0 0.0 0.00 0.00 0.00 81 1019.2
20260502070039 49 53 0.0 0.0 0.00 0.00 0.00 81 1019.0
20260502065512 48 53 0.0 0.0 0.00 0.00 0.00 80 1019.2
20260502065008 48 52 0.0 0.0 0.00 0.00 0.00 80 1019.2
20260502064527 48 53 0.0 0.0 0.00 0.00 0.00 80 1019.2
20260502064003 48 53 0.0 0.0 0.00 0.00 0.00 80 1019.3
20260502063504 48 53 0.0 0.0 0.00 0.00 0.00 79 1019.3
20260502063015 48 53 0.0 0.0 0.00 0.00 0.00 79 1019.3
20260502062504 48 53 0.0 0.0 0.00 0.00 0.00 78 1019.2
20260502062006 48 53 0.0 0.0 0.00 0.00 0.00 78 1019.2
20260502061505 48 53 0.0 0.0 0.00 0.00 0.00 78 1019.2
20260502061008 48 53 0.0 0.0 0.00 0.00 0.00 77 1019.2
20260502060503 48 53 0.0 0.0 0.00 0.00 0.00 76 1019.1
20260502060004 49 53 0.0 0.0 0.00 0.00 0.00 76 1019.1
20260502055507 49 53 0.0 0.0 0.00 0.00 0.00 76 1019.1
20260502055003 49 53 0.0 0.0 0.00 0.00 0.00 75 1019.1
20260502054526 49 53 0.0 0.0 0.00 0.00 0.00 74 1019.1
20260502054006 49 53 0.0 0.0 0.00 0.00 0.00 74 1019.1
20260502053504 49 53 0.0 0.0 0.00 0.00 0.00 74 1019.1
20260502053012 50 53 0.0 0.0 0.00 0.00 0.00 73 1019.1
20260502052503 50 53 0.0 0.0 0.00 0.00 0.00 72 1019.1
20260502052006 50 53 0.0 0.0 0.00 0.00 0.00 72 1019.0
20260502051511 50 53 0.0 0.0 0.00 0.00 0.00 72 1018.9
20260502051005 50 53 0.0 0.0 0.00 0.00 0.00 71 1019.0
20260502050510 50 53 0.0 0.0 0.00 0.00 0.00 71 1019.1
20260502050016 51 53 0.0 0.0 0.00 0.00 0.00 70 1019.1
20260502045504 51 53 0.0 0.0 0.00 0.00 0.00 70 1019.1
20260502045006 51 53 0.0 0.0 0.00 0.00 0.00 70 1019.2
20260502044513 51 53 0.0 0.0 0.00 0.00 0.00 70 1019.2
20260502044005 51 53 0.0 0.0 0.00 0.00 0.00 69 1019.2
20260502043504 51 53 0.0 0.0 0.00 0.00 0.00 69 1019.2
20260502043008 52 53 0.0 0.0 0.00 0.00 0.00 68 1019.2
20260502042506 52 53 0.0 0.0 0.00 0.00 0.00 68 1019.2
20260502042006 52 52 0.0 0.0 0.00 0.00 0.00 67 1019.2
20260502041503 52 53 0.0 0.0 0.00 0.00 0.00 66 1019.3
20260502041006 52 53 0.0 0.0 0.00 0.00 0.00 66 1019.4
20260502040503 53 53 0.0 0.0 0.00 0.00 0.00 65 1019.4
20260502040015 53 53 0.0 0.0 0.00 0.00 0.00 64 1019.4
20260502035507 53 53 0.0 0.0 0.00 0.00 0.00 65 1019.4
20260502035005 53 53 0.0 0.0 0.00 0.00 0.00 64 1019.4
20260502034521 53 53 0.0 0.0 0.00 0.00 0.00 64 1019.4
20260502034010 53 53 0.0 0.0 0.00 0.00 0.00 64 1019.4
20260502033503 54 53 0.0 0.0 0.00 0.00 0.00 63 1019.4
20260502033014 54 52 0.0 0.0 0.00 0.00 0.00 62 1019.4
20260502032503 54 53 0.0 0.0 0.00 0.00 0.00 61 1019.4
20260502032007 54 53 0.0 0.0 0.00 0.00 0.00 61 1019.4
20260502031516 55 53 0.0 0.0 0.00 0.00 0.00 61 1019.4
20260502031006 55 53 0.0 0.0 0.00 0.00 0.00 60 1019.4
20260502030511 55 53 0.0 0.0 0.00 0.00 0.00 60 1019.4
20260502030018 56 53 0.0 0.0 0.00 0.00 0.00 60 1019.4
20260502025504 56 53 0.0 0.0 0.00 0.00 0.00 56 1019.3
20260502025008 56 53 0.0 0.0 0.00 0.00 0.00 55 1019.3
20260502024515 56 53 0.0 0.0 0.00 0.00 0.00 54 1019.3
20260502024009 57 53 0.0 0.0 0.00 0.00 0.00 54 1019.2
20260502023508 57 53 0.0 0.0 0.00 0.00 0.00 53 1019.1
20260502023012 58 53 0.0 0.0 0.00 0.00 0.00 53 1019.1
20260502022508 58 53 0.0 0.0 0.00 0.00 0.00 52 1019.0
20260502022011 58 53 0.0 0.0 0.00 0.00 0.00 52 1018.8
20260502021520 58 53 0.0 0.0 0.00 0.00 0.00 49 1018.7
20260502021009 59 53 0.0 1.0 0.00 0.00 0.00 48 1018.6
20260502020507 59 53 0.0 2.0 0.00 0.00 0.00 47 1018.5
20260502020020 59 53 0.0 2.0 0.00 0.00 0.00 46 1018.5
20260502015508 60 53 0.0 2.0 0.00 0.00 0.00 46 1018.5
20260502015007 60 53 0.0 2.0 0.00 0.00 0.00 45 1018.5
20260502014521 60 53 0.0 2.0 0.00 0.00 0.00 44 1018.4
20260502014010 60 53 0.0 2.0 0.00 0.00 0.00 43 1018.2
20260502013506 61 52 0.0 2.0 0.00 0.00 0.00 42 1018.1
20260502013019 61 52 0.0 2.0 0.00 0.00 0.00 42 1018.0
20260502012941 62 52 0.0 0.0 0.00 0.00 0.00 42 1017.9
20260502012827 62 52 0.0 1.0 0.00 0.00 0.00 41 1017.9
20260502012822 62 52 0.0 2.0 0.00 0.00 0.00 40 1018.0
20260502012714 63 33 0.0 3.0 0.00 0.00 0.00 36 1017.9
20260502012709 63 33 0.0 3.0 0.00 0.00 0.00 36 1017.8
20260502012607 63 36 2.0 3.0 0.00 0.00 0.00 36 1017.7
20260502012600 64 36 0.0 4.0 0.00 0.00 0.00 36 1017.7
20260502012455 64 36 0.0 4.0 0.00 0.00 0.00 37 1017.7
20260502012342 64 38 1.0 6.0 0.00 0.00 0.00 36 1017.7
20260502011642 64 37 2.0 6.0 0.00 0.00 0.00 36 1017.6
20260502011048 64 23 3.0 5.0 0.00 0.00 0.00 36 1017.6
20260502010616 65 61 2.0 4.0 0.00 0.00 0.00 36 1017.5
20260502005914 65 217 1.0 4.0 0.00 0.00 0.00 37 1017.5
20260502005208 65 32 0.0 6.0 0.00 0.00 0.00 35 1017.5
20260502004533 65 32 3.0 7.0 0.00 0.00 0.00 36 1017.4
20260502003812 65 45 2.0 7.0 0.00 0.00 0.00 35 1017.4
20260502003322 65 36 1.0 8.0 0.00 0.00 0.00 34 1017.4
20260502002627 65 42 3.0 8.0 0.00 0.00 0.00 34 1017.3
20260502001815 65 23 2.0 8.0 0.00 0.00 0.00 34 1017.3
20260502001031 65 48 2.0 9.0 0.00 0.00 0.00 35 1017.3
20260502000441 66 36 3.0 12.0 0.00 0.00 0.00 35 1017.2
20260501235849 66 53 4.0 12.0 0.00 0.00 0.00 33 1017.3
20260501235256 66 40 4.0 12.0 0.00 0.00 0.00 34 1017.2
20260501234336 66 46 1.0 12.0 0.00 0.00 0.00 33 1017.2
20260501233857 66 37 4.0 10.0 0.00 0.00 0.00 33 1017.2
20260501233308 67 25 2.0 13.0 0.00 0.00 0.00 32 1017.1
20260501232606 67 27 4.0 13.0 0.00 0.00 0.00 33 1017.2
20260501231900 67 38 5.0 11.0 0.00 0.00 0.00 32 1017.1
20260501231208 67 23 6.0 11.0 0.00 0.00 0.00 34 1017.1
20260501230615 67 33 4.0 10.0 0.00 0.00 0.00 34 1017.1
20260501225913 66 46 5.0 14.0 0.00 0.00 0.00 33 1017.1
20260501225322 66 33 5.0 14.0 0.00 0.00 0.00 34 1017.2
20260501224623 66 33 6.0 12.0 0.00 0.00 0.00 32 1017.2
20260501224031 66 24 3.0 10.0 0.00 0.00 0.00 34 1017.2
20260501223327 66 314 4.0 13.0 0.00 0.00 0.00 33 1017.2
20260501222630 66 33 4.0 13.0 0.00 0.00 0.00 32 1017.2
20260501222008 66 15 5.0 15.0 0.00 0.00 0.00 32 1017.1
20260501221515 67 40 6.0 15.0 0.00 0.00 0.00 31 1017.0
20260501221010 67 18 8.0 15.0 0.00 0.00 0.00 33 1017.0
20260501220506 67 333 6.0 14.0 0.00 0.00 0.00 31 1017.0
20260501220022 68 322 5.0 14.0 0.00 0.00 0.00 30 1017.0
20260501215503 68 21 6.0 13.0 0.00 0.00 0.00 31 1016.8
20260501215007 68 314 5.0 13.0 0.00 0.00 0.00 34 1016.7
20260501214515 68 11 6.0 14.0 0.00 0.00 0.00 32 1016.6
20260501214011 68 27 6.0 14.0 0.00 0.00 0.00 31 1016.6
20260501213509 69 23 8.0 15.0 0.00 0.00 0.00 33 1016.7
20260501213007 68 10 6.0 15.0 0.00 0.00 0.00 35 1016.7
20260501212507 68 25 5.0 14.0 0.00 0.00 0.00 33 1016.7
20260501212008 69 31 6.0 11.0 0.00 0.00 0.00 32 1016.8
20260501211508 69 339 4.0 13.0 0.00 0.00 0.00 30 1016.9
20260501211006 70 55 7.0 15.0 0.00 0.00 0.00 32 1017.0
20260501210505 70 16 2.0 15.0 0.00 0.00 0.00 29 1017.0
20260501210029 70 54 6.0 14.0 0.00 0.00 0.00 28 1017.1
20260501205507 71 23 5.0 14.0 0.00 0.00 0.00 35 1017.1
20260501205006 71 321 2.0 13.0 0.00 0.00 0.00 32 1017.1
20260501204524 70 33 4.0 14.0 0.00 0.00 0.00 36 1017.1
20260501204007 70 25 6.0 14.0 0.00 0.00 0.00 30 1017.1
20260501203504 70 3 4.0 14.0 0.00 0.00 0.00 34 1017.3
20260501203020 70 67 3.0 14.0 0.00 0.00 0.00 35 1017.4
20260501202507 70 18 5.0 12.0 0.00 0.00 0.00 37 1017.4
20260501202010 69 340 2.0 11.0 0.00 0.00 0.00 37 1017.5
20260501201523 69 23 4.0 13.0 0.00 0.00 0.00 40 1017.6
20260501201004 70 28 7.0 13.0 0.00 0.00 0.00 34 1017.7
20260501200511 70 61 6.0 13.0 0.00 0.00 0.00 36 1017.9
20260501200026 69 40 4.0 13.0 0.00 0.00 0.00 36 1018.0
20260501195504 69 103 7.0 12.0 0.00 0.00 0.00 36 1018.1
20260501195008 70 25 4.0 11.0 0.00 0.00 0.00 41 1018.2
20260501194518 69 339 3.0 10.0 0.00 0.00 0.00 39 1018.2
20260501194008 68 37 5.0 10.0 0.00 0.00 0.00 42 1018.4
20260501193508 69 17 3.0 11.0 0.00 0.00 0.00 40 1018.4
20260501193007 68 48 1.0 11.0 0.00 0.00 0.00 39 1018.5
20260501192508 68 339 5.0 11.0 0.00 0.00 0.00 42 1018.7
20260501192006 68 348 4.0 11.0 0.00 0.00 0.00 41 1018.8
20260501191504 68 315 4.0 15.0 0.00 0.00 0.00 44 1018.9
20260501191015 67 312 3.0 15.0 0.00 0.00 0.00 44 1019.0